Ashgabat Airport

Jump to: basic info | weather | frequencies | runways | comments

Related pages: nearby airports | nearby navaids | notams | map

Basic information (top)

Codes: ASB UTAA
Location: lon 37.986801, lat 58.361000, elev 692 ft / 211 m msl
Status: medium_airport
Scheduled airline service: yes
Links: Wikipedia Mobile

Weather (top)

Current conditions (rec'd 2014/09/03 04:00Z):

UTAA 030400Z 17002MPS 070V230 9999 SKC 26/M00 Q1014 NOSIG

Airport forecast (rec'd 2014/09/03 03:03Z):

TAF TAF UTAA 030130Z 0303/0315 10007MPS 5000 SKC 530006 
      TEMPO 0303/0306 VRB02MPS 1500 HZ 
      TEMPO 0306/0312 12008G13MPS 3000 DRDU

Frequencies (top)

Verify before use: may be inaccurate or out of date.

APP: 123.5 MHz (APP)
GCA: 118.7 MHz (APP)
GND: 121.7 MHz (GND)
TWR: 120 MHz (TWR)

Runways (top)

11/29: 5,907 x 114 ft (1,800 x 35 m) — paved — not lighted — threshold 11 displaced 990 ft (302 m) — threshold 29 displaced 1,965 ft (599 m)

12L/30R: 12,467 x 151 ft (3,800 x 46 m) — paved — lighted

12R/30L: 9,806 x 196 ft (2,989 x 60 m) — paved — lighted

Latest comments (top)

Lol: Lol [read]

can duty free liquor purchased in UK be transferred via Ashg: I am flying to Amirtsar with T5 but not ... [read]

More... (top)

See also NOTAMs and nearby airports and navaids, or visit the Ashgabat Airport page at the main OurAirports website..